Regional Weather Roundup
Issued by NWS Lake Charles, LA

Home | Current Version | Previous Version | Text Only | Print | Product List | Glossary On
Versions: 1 2 3 4 5 6 7 8 9 10 11 12 13 14 15 16 17 18 19 20 21 22 23 24 25 26 27 28 29 30 31 32 33 34 35 36 37 38 39 40 41 42 43 44 45 46 47 48 49 50
590
ASUS44 KLCH 270010
RWRLCH
REGIONAL WEATHER ROUNDUP
NATIONAL WEATHER SERVICE LAKE CHARLES LA
700 PM CDT WED JUL 26 2017

Note: "fair" indicates few or no clouds below 12,000 feet with no
significant weather and/or obstructions to visibility.


ACROSS SOUTHEAST TEXAS

CITY           SKY/WX    TMP DP  RH WIND       PRES   REMARKS
BEAUMONT       SUNNY     85  74  69 S12       30.04S
BEAUMONT CITY  FAIR      90  74  60 MISG      30.04F
ORANGE         CLEAR     88  76  67 S10G17    30.06S
JASPER           N/A     91  75  59 S9        30.06S HX 102
$$

ACROSS CENTRAL LOUISIANA

CITY           SKY/WX    TMP DP  RH WIND       PRES   REMARKS
LEESVILLE      SUNNY     89  75  63 S8        30.04R
FULLERTON      FAIR      81  79  94 CALM      30.03R
ALEXANDRIA INT SUNNY     89  75  63 S6        30.01S
ESLER FIELD    SUNNY     91  75  59 S5        30.04R HX 101
DERIDDER       FAIR      87  73  62 SW3       30.07S
OAKDALE        CLEAR     88  76  67 CALM      30.04S
OPELOUSAS      FAIR      90  76  64 SW3       30.04S HX 101
$$

ACROSS SOUTHWEST AND SOUTH CENTRAL LOUISIANA

CITY           SKY/WX    TMP DP  RH WIND       PRES   REMARKS
SULPHUR        CLEAR     89  76  65 S10       30.05S HX 100
LAKE CHARLES   SUNNY     88  76  67 SW9       30.04F
CHENNAULT INT  MOSUNNY   90  75  62 S10       30.05S HX 100
CAMERON PHI    CLEAR     86  77  74 S9        30.04F
DEQUINCY       FAIR      89  73  59 S6        30.05R
JENNINGS       FAIR      89  75  62 SW7       30.05R
LAFAYETTE      PTSUNNY   86  73  65 CALM      30.06R
NEW IBERIA     MOSUNNY   86  74  67 S6        30.05F
ABBEVILLE      FAIR      90  79  70 SW8       30.05F HX 105
PATTERSON      SUNNY     88  78  72 W10       30.06S HX 101
SALT POINT       N/A     88  77  69 SW5       30.04S HX 100
$$

SELECTED SITES ACROSS THE REGION

CITY           SKY/WX    TMP DP  RH WIND       PRES   REMARKS
HOUSTON BUSH   MOSUNNY   91  75  59 S12       30.02F HX 101
HOUSTON HOBBY  MOSUNNY   91  73  55 S10       30.02F
GALVESTON      SUNNY     87  78  74 S12       30.05F HX 100
COLLEGE STAT   SUNNY     98  67  36 SE14      29.98S HX 102
CONROE         MOSUNNY   91  73  55 S13       30.02F
HUNTSVILLE     SUNNY     95  68  41 S8        30.01S
LUFKIN         SUNNY     92  73  53 S6        30.02S HX 100
SHREVEPORT     MOSUNNY   93  73  52 S7        30.00S HX 102
MONROE         MOSUNNY   92  72  51 SW3       30.02S
NATCHEZ MS     SUNNY     90  74  59 S5        30.06S
BATON ROUGE    SUNNY     92  72  51 N3        30.04F
N.O. INTL ARPT PTSUNNY   87  73  62 E8        30.05F
SLIDELL        CLOUDY    78  74  87 CALM      30.04F
$$

MARINE REPORTS

STATION/POSITION TIME  SKY/WX   TEMP    WIND        PRES    VSBY
                                AIR SEA DIR/SP/G
                 (UTC)          (F)     (DEG/KT/KT) (MB)    (MI)
BUOY 30 S HIGH I 2250            86 88  170/ 10/ 12 1017.8
WVE H/P(F/S)=  2/ 6

SEA RIM ST PARK  0000            86     180/  9/ 11 1018.0F
PORT ARTHUR      2348            87 88  170/  6/ 11 1017.8F
SABINE PASS N    2348            87 89  190/  9/ 13 1019.1F
TEXAS POINT      NOT AVBL
CALCASIEU PASS   2348               88  220/ 11/ 12 1017.1S
LK CHARLES BEACH 2348            90 85              1017.8F
MARSH ISLAND     NOT AVBL
FRESH WATER LOCK 2348            86 87  200/  7/  9 1018.1R
AMERADA PASS     2348            88 90  260/  3/  6 1017.6F
$$




USA.gov is the U.S. government's official web portal to all federal, state and local government web resources and services.